Location: ???
(35.5616°N, 139.7977°E)
Time: 01:51:15
(UTC+00:00)

Tsikada Rocket - Pass Details

Date: 17 November 2025
Orbit: 957 x 1008 km, 82.9° (Epoch: 09 December)

Event Time Altitude Azimuth Distance (km) Brightness Sun altitude
Rises 20:46:01 0° 188° (S) 3,677 7.2 -7.1°
Reaches altitude 10° 20:48:31 10° 190° (S) 2,740 6.5 -6.6°
Maximum altitude 20:54:48 78° 276° (W) 1,021 4.1 -5.4°
Drops below altitude 10° 21:01:13 10° 3° (N) 2,784 6.2 -4.2°
Sets 21:03:47 0° 5° (N) 3,741 6.9 -3.7°
